Eastsound, WA
on Sunday, November 25, 2012

Sunday
Previous Day Next Day
Daily Summary
 ActualAverage (KBLI)Record (KBLI)
Temperature
Mean Temperature °F 41°F  
Max Temperature 44°F 47°F 60°F (1949)
Min Temperature 37°F 35°F 15°F (1993)
Degree Days
Heating Degree Days 24 24  
Month to date heating degree days 530  
Cooling Degree Days 0 0  
Month to date cooling degree days 0  
Year to date cooling degree days 42  
Moisture
Dew Point 38°F   
Average Humidity 89    
Maximum Humidity 100    
Minimum Humidity 76    
Precipitation
Precipitation 0.00 in 0.19 in 1.16 in (1977)
Month to date precipitation 4.88  
Year to date precipitation 30.69  
Wind
Wind Speed 2 mph   
Max Wind Speed 9 mph   
Max Gust Speed mph   
Visibility 10 miles   
Events Rain   

Key: T is trace of precipitation, MM is missing value
Source: NWS Daily Summary
Time(PST)TemperatureDew PointHumidity Pressure Visibility Wind DirectionWind SpeedGust SpeedPrecipitationEvents Conditions
12:15 AM 37.4°F 37.4°F 100% 30.26 in 5.0 miles Calm Calm - N/A   Mostly Cloudy
12:35 AM 37.4°F 37.4°F 100% 30.26 in 7.0 miles Calm Calm - N/A   Overcast
12:55 AM 37.4°F 37.4°F 100% 30.26 in 10.0 miles Calm Calm - N/A   Overcast
1:15 AM 37.4°F 37.4°F 100% 30.27 in 10.0 miles Calm Calm - N/A   Overcast
1:35 AM 39.2°F 39.2°F 100% 30.27 in 9.0 miles Calm Calm - N/A   Overcast
1:55 AM 39.2°F 39.2°F 100% 30.27 in 9.0 miles Calm Calm - N/A   Overcast
2:15 AM 39.2°F 39.2°F 100% 30.27 in 10.0 miles Calm Calm - N/A   Overcast
2:35 AM 39.2°F 39.2°F 100% 30.28 in 10.0 miles Calm Calm - N/A   Overcast
2:55 AM 39.2°F 39.2°F 100% 30.29 in 10.0 miles Calm Calm - N/A   Overcast
3:15 AM 39.2°F 39.2°F 100% 30.29 in 10.0 miles Calm Calm - N/A   Overcast
3:35 AM 39.2°F 39.2°F 100% 30.29 in 10.0 miles Calm Calm - N/A   Overcast
5:35 AM 41.0°F 39.2°F 93% 30.29 in 10.0 miles Calm Calm - N/A   Overcast
5:55 AM 41.0°F 39.2°F 93% 30.29 in 10.0 miles Calm Calm - N/A   Overcast
6:15 AM 39.2°F 39.2°F 100% 30.29 in 10.0 miles Calm Calm - N/A   Overcast
6:35 AM 39.2°F 39.2°F 100% 30.29 in 10.0 miles Calm Calm - N/A   Overcast
6:55 AM 39.2°F 39.2°F 100% 30.30 in 10.0 miles Calm Calm - N/A   Overcast
7:15 AM 39.2°F 39.2°F 100% 30.30 in 10.0 miles Calm Calm - N/A   Overcast
7:35 AM 39.2°F 39.2°F 100% 30.31 in 10.0 miles Calm Calm - N/A   Overcast
7:55 AM 41.0°F 39.2°F 93% 30.31 in 10.0 miles Calm Calm - N/A   Overcast
8:15 AM 41.0°F 39.2°F 93% 30.32 in 10.0 miles South 3.5 mph - N/A   Mostly Cloudy
8:35 AM 41.0°F 39.2°F 93% 30.32 in 8.0 miles Calm Calm - N/A Rain Light Rain
8:55 AM 42.8°F 39.2°F 87% 30.33 in 10.0 miles NNW 5.8 mph - N/A   Overcast
9:15 AM 42.8°F 39.2°F 87% 30.34 in 9.0 miles NW 5.8 mph - N/A Rain Light Rain
9:55 AM 42.8°F 39.2°F 87% 30.34 in 10.0 miles NW 4.6 mph - N/A   Overcast
10:15 AM 42.8°F 39.2°F 87% 30.34 in 10.0 miles Calm Calm - N/A   Scattered Clouds
10:35 AM 44.6°F 39.2°F 81% 30.35 in 10.0 miles NNW 3.5 mph - N/A   Mostly Cloudy
10:55 AM 42.8°F 39.2°F 87% 30.35 in 10.0 miles NW 3.5 mph - N/A   Overcast
11:15 AM 42.8°F 39.2°F 87% 30.35 in 10.0 miles NW 3.5 mph - N/A   Mostly Cloudy
11:35 AM 44.6°F 39.2°F 81% 30.35 in 10.0 miles NNW 5.8 mph - N/A   Partly Cloudy
11:55 AM 44.6°F 37.4°F 76% 30.35 in 10.0 miles NNW 4.6 mph - N/A   Mostly Cloudy
12:15 PM 44.6°F 37.4°F 76% 30.34 in 10.0 miles NNW 6.9 mph - N/A   Scattered Clouds
12:35 PM 44.6°F 39.2°F 81% 30.34 in 10.0 miles North 4.6 mph - N/A   Scattered Clouds
12:55 PM 44.6°F 39.2°F 81% 30.34 in 10.0 miles NNW 5.8 mph - N/A   Mostly Cloudy
1:15 PM 42.8°F 39.2°F 87% 30.34 in 10.0 miles NNW 5.8 mph - N/A   Mostly Cloudy
1:35 PM 44.6°F 39.2°F 81% 30.34 in 10.0 miles North 5.8 mph - N/A   Mostly Cloudy
1:55 PM 42.8°F 37.4°F 81% 30.33 in 10.0 miles NNW 3.5 mph - N/A   Mostly Cloudy
2:15 PM 44.6°F 39.2°F 81% 30.33 in 10.0 miles Calm Calm - N/A   Mostly Cloudy
2:35 PM 42.8°F 37.4°F 81% 30.33 in 10.0 miles Calm Calm - N/A   Scattered Clouds
2:55 PM 41.0°F 37.4°F 87% 30.33 in 10.0 miles Calm Calm - N/A   Partly Cloudy
3:15 PM 42.8°F 37.4°F 81% 30.33 in 10.0 miles North 5.8 mph - N/A   Partly Cloudy
3:35 PM 42.8°F 37.4°F 81% 30.33 in 10.0 miles North 3.5 mph - N/A   Partly Cloudy
3:55 PM 41.0°F 37.4°F 87% 30.33 in 10.0 miles NNW 4.6 mph - N/A   Partly Cloudy
4:15 PM 41.0°F 37.4°F 87% 30.32 in 10.0 miles Calm Calm - N/A   Scattered Clouds
4:35 PM 39.2°F 37.4°F 93% 30.32 in 10.0 miles Calm Calm - N/A   Partly Cloudy
4:55 PM 39.2°F 37.4°F 93% 30.32 in 10.0 miles Calm Calm - N/A   Clear
5:15 PM 37.4°F 37.4°F 100% 30.32 in 10.0 miles Calm Calm - N/A   Clear
5:35 PM 37.4°F 35.6°F 93% 30.31 in 8.0 miles Calm Calm - N/A   Clear
5:55 PM 37.4°F 37.4°F 100% 30.30 in 9.0 miles Calm Calm - N/A   Clear
6:15 PM 39.2°F 37.4°F 93% 30.29 in 10.0 miles Calm Calm - N/A   Mostly Cloudy
6:35 PM 41.0°F 37.4°F 87% 30.30 in 10.0 miles Calm Calm - N/A   Mostly Cloudy
6:55 PM 41.0°F 37.4°F 87% 30.29 in 10.0 miles Calm Calm - N/A   Mostly Cloudy
7:15 PM 41.0°F 37.4°F 87% 30.29 in 10.0 miles North 4.6 mph - N/A   Mostly Cloudy
7:55 PM 42.8°F 37.4°F 81% 30.28 in 10.0 miles North 8.1 mph - N/A   Clear
8:15 PM 41.0°F 37.4°F 87% 30.28 in 10.0 miles North 6.9 mph - N/A   Clear
8:35 PM 41.0°F 37.4°F 87% 30.28 in 10.0 miles North 9.2 mph - N/A   Clear
8:55 PM 41.0°F 37.4°F 87% 30.29 in 10.0 miles North 8.1 mph - N/A   Clear
9:15 PM 41.0°F 37.4°F 87% 30.28 in 10.0 miles North 5.8 mph - N/A   Clear
9:35 PM 41.0°F 37.4°F 87% 30.28 in 10.0 miles NNE 4.6 mph - N/A   Clear
9:55 PM 41.0°F 35.6°F 81% 30.27 in 10.0 miles NNE 4.6 mph - N/A   Clear
10:15 PM 41.0°F 35.6°F 81% 30.26 in 10.0 miles NE 5.8 mph - N/A   Clear
10:35 PM 41.0°F 35.6°F 81% 30.26 in 10.0 miles NE 5.8 mph - N/A   Clear
10:55 PM 41.0°F 35.6°F 81% 30.26 in 10.0 miles ENE 3.5 mph - N/A   Clear
11:15 PM 41.0°F 37.4°F 87% 30.26 in 10.0 miles NNE 4.6 mph - N/A   Clear
11:35 PM 41.0°F 35.6°F 81% 30.26 in 10.0 miles NNE 5.8 mph - N/A   Clear
11:55 PM 41.0°F 33.8°F 76% 30.26 in 10.0 miles NNE 4.6 mph - N/A   Clear
Moon Phase
Nov. 25 Nov. 28 Dec. 06 Dec. 13 Dec. 20
Sunrise:07:35 AM (PST) Moon Rise:02:49 PM (PST)11/25
Sunset:04:21 PM (PST) Moon Set:04:45 AM (PST)11/25

Copyright © 2014 The Weather Underground, Inc.